STARLINK-32255 (60417 NORAD) Tracking and Keplerian Element Data

This shows tracking and keplerian element data for the satellite.

Feedback or suggestion? Click here.




ElementValue
Catalog60417
NameSTARLINK-32255
Epoch Orbit1105
Epoch Day286.79269488
Epoch Year2024
RAAN104.949
Inclination53.1607
Eccentricity8.76E-05
Argument of Perigee78.4959
Mean Anonmoly281.614
Mean Motion15.30191579
Decay Rate-1.24E-05
L11 60417U 24141V 24286.79269488 -.00001240 00000+0 -29758-4 0 9998
L22 60417 53.1607 104.9490 0000876 78.4959 281.6140 15.30191579 11052



Live tracking and technical data element details for STARLINK-32255 (NORAD 60417). STARLINK-32255 can be tracked NOW for your location showing map with azimuth and elevation plus other details from your city location.







IsCatalogInMostPopularTable: catalog: 60417, numindb: 8
Update: records affected: 1



GetName: 60417 STARLINK-32255

Hit Count: updated at: Wed, 04 Dec 2024 17:31:01 GMT